Powrót do katalogu

STARLINK-30469

AktywnyŁącznośćVLEO
NORAD 57896·PAYLOAD·🇺🇸 United States

Wystrzelony Sep 20, 2023 z Cape Canaveral Space Force Station

Loading…

Następne Przeloty (najbliższe 24 godziny)

TLE

ŚwieżeSource: CelesTrak SupGP

Epoka: Sep 15, 2026, 03:16 UTC

1 57896C 23146F   26258.13659722 -.00072461  00000+0 -26277-2 0  2584
2 57896  43.0019 324.2806 0001344 260.7763 328.8770 15.27574925    15

Śledź STARLINK-30469 w czasie rzeczywistym z AllMySat

Download on the App Store